Back to catalog

STARLINK-3629

AliveCommunicationsVLEO
NORAD 51774·PAYLOAD·🇺🇸 United States

Launched Feb 25, 2022 from Vandenberg Space Force Base

Loading…

Next Passes (next 24 hours)

TLE

FreshSource: CelesTrak SupGP

Epoch: Sep 15, 2026, 02:26 UTC

1 51774C 22017G   26258.10187500 -.00051196  00000+0 -15130-2 0  2584
2 51774  53.1608 203.2923 0001425  82.4849 240.7953 15.34408152    11

Track STARLINK-3629 in real time with AllMySat

Download on the App Store